QPF
0.00 0.00 0.00 0.00 0.00 0.00 0.00 0.00 0.00 0.00 0.00 0.00 0.00 0.00 0.00 0.00 0.00 0.00 0.00 0.00 0.00 0.00 0.00 0.00 0.00 0.00 0.00 0.00 0.00 0.00 0.00 0.00 0.00 0.00 0.00 0.00 0.00 0.00 0.00 0.00 0.00 0.00 0.00 0.00 0.00
0.00 0.00 0.00 0.00 0.00 0.00 0.00 0.00 0.00 0.00 0.00 0.00 0.00 0.00 0.00 0.00 0.00 0.00 0.00 0.00 0.00 0.00 0.00 0.00 0.00 0.00 0.00 0.00 0.00 0.00 0.00 0.00 0.00 0.00 0.00 0.00 0.00 0.00 0.00 0.00 0.00 0.00 0.00 0.00 0.00
0.00 0.00 0.00 0.00 0.00 0.00 0.00 0.00 0.00 0.00 0.00 0.00 0.00 0.00 0.00 0.00 0.00 0.00 0.00 0.00 0.00 0.00 0.00 0.00 0.00 0.00 0.00 0.00 0.00 0.00 0.00 0.00 0.00 0.00 0.00 0.00 0.00 0.00 0.00 0.00 0.00 0.00 0.00 0.00 0.00
0.00 0.00 0.00 0.00 0.00 0.00 0.00 0.00 0.00 0.00 0.00 0.00 0.00 0.00 0.00 0.00 0.00 0.00 0.00 0.00 0.00 0.00 0.00 0.00 0.00 0.00 0.00 0.00 0.00 0.00 0.00 0.00 0.00 0.00 0.00 0.00 0.00 0.00 0.00 0.00 0.00 0.00 0.00 0.00 0.00
0.00 0.00 0.00 0.00 0.00 0.00 0.00 0.00 0.00 0.00 0.00 0.00 0.00 0.00 0.00 0.00 0.00 0.00 0.00 0.00 0.00 0.00 0.00 0.00 0.00 0.00 0.00 0.00 0.00 0.00 0.00 0.00 0.00 0.00 0.00 0.00 0.00 0.00 0.00 0.00 0.00 0.00 0.00 0.00 0.00
0.00 0.00 0.00 0.00 0.00 0.00 0.00 0.00 0.00 0.00 0.00 0.00 0.00 0.00 0.00 0.00 0.00 0.00 0.00 0.00 0.00 0.00 0.00 0.00 0.00 0.00 0.00 0.00 0.00 0.00 0.00 0.00 0.00 0.00 0.00 0.00 0.00 0.00 0.00 0.00 0.00 0.00 0.00 0.00 0.00
0.00 0.00 0.00 0.00 0.00 0.00 0.00 0.00 0.00 0.00 0.00 0.00 0.00 0.00 0.00 0.00 0.00 0.00 0.00 0.00 0.00 0.00 0.00 0.00 0.00 0.00 0.00 0.00 0.00 0.00 0.00 0.00 0.00 0.00 0.00 0.00 0.00 0.00 0.00 0.00 0.00 0.00 0.00 0.00 0.00
0.00 0.00 0.00 0.00 0.00 0.00 0.00 0.00 0.00 0.00 0.00 0.00 0.00 0.00 0.00 0.00 0.00 0.00 0.00 0.00 0.00 0.00 0.00 0.00 0.00 0.00 0.00 0.00 0.00 0.00 0.00 0.00 0.00 0.00 0.00 0.00 0.00 0.00 0.00 0.00 0.00 0.00 0.00 0.00 0.00
0.00 0.00 0.00 0.00 0.00 0.00 0.00 0.00 0.00 0.00 0.00 0.00 0.00 0.00 0.00 0.00 0.00 0.00 0.00 0.00 0.00 0.00 0.00 0.00 0.00 0.00 0.00 0.00 0.00 0.00 0.00 0.00 0.00 0.00 0.00 0.00 0.00 0.00 0.00 0.00 0.00 0.00 0.00 0.00 0.00
0.00 0.00 0.00 0.00 0.00 0.00 0.00 0.00 0.00 0.00 0.00 0.00 0.00 0.00 0.00 0.00 0.00 0.00 0.00 0.00 0.00 0.00 0.00 0.00 0.00 0.00 0.00 0.00 0.00 0.00 0.00 0.00 0.00 0.00 0.00 0.00 0.00 0.00 0.00 0.00 0.00 0.00 0.00 0.00 0.00
0.00 0.00 0.00 0.00 0.00 0.00 0.00 0.00 0.00 0.00 0.00 0.00 0.00 0.00 0.00 0.00 0.00 0.00 0.00 0.00 0.00 0.00 0.00 0.00 0.00 0.00 0.00 0.00 0.00 0.00 0.00 0.00 0.00 0.00 0.00 0.00 0.00 0.00 0.00 0.00 0.00 0.00 0.00 0.00 0.00
0.00 0.00 0.00 0.00 0.00 0.00 0.00 0.00 0.00 0.00 0.00 0.00 0.00 0.00 0.00 0.00 0.00 0.00 0.00 0.00 0.00 0.00 0.00 0.00 0.00 0.00 0.00 0.00 0.00 0.00 0.00 0.00 0.00 0.00 0.00 0.00 0.00 0.00 0.00 0.00 0.00 0.00 0.00 0.00 0.00
0.00 0.00 0.00 0.00 0.00 0.00 0.00 0.00 0.00 0.00 0.00 0.00 0.00 0.00 0.00 0.00 0.00 0.00 0.00 0.00 0.00 0.00 0.00 0.00 0.00 0.00 0.00 0.00 0.00 0.00 0.00 0.00 0.00 0.00 0.00 0.00 0.00 0.00 0.00 0.00 0.00 0.00 0.00 0.00 0.00
0.00 0.00 0.00 0.00 0.00 0.00 0.00 0.00 0.00 0.00 0.00 0.00 0.00 0.00 0.00 0.00 0.00 0.00 0.00 0.00 0.00 0.00 0.00 0.00 0.00 0.00 0.00 0.00 0.00 0.00 0.00 0.00 0.00 0.00 0.00 0.00 0.00 0.00 0.00 0.00 0.00 0.00 0.00 0.00 0.00
0.00 0.00 0.00 0.00 0.00 0.00 0.00 0.00 0.00 0.00 0.00 0.00 0.00 0.00 0.00 0.00 0.00 0.00 0.00 0.00 0.00 0.00 0.00 0.00 0.00 0.00 0.00 0.00 0.00 0.00 0.00 0.00 0.00 0.00 0.00 0.00 0.00 0.00 0.00 0.00 0.00 0.00 0.00 0.00 0.00
0.00 0.00 0.00 0.00 0.00 0.00 0.00 0.00 0.00 0.00 0.00 0.00 0.00 0.00 0.00 0.00 0.00 0.00 0.00 0.00 0.00 0.00 0.00 0.00 0.00 0.00 0.00 0.00 0.00 0.00 0.00 0.00 0.00 0.00 0.03 0.01 0.00 0.00 0.00 0.00 0.00 0.00 0.00 0.00 0.00
0.00 0.00 0.00 0.00 0.00 0.00 0.00 0.00 0.00 0.00 0.00 0.00 0.00 0.00 0.00 0.00 0.00 0.00 0.00 0.00 0.00 0.00 0.00 0.00 0.00 0.00 0.00 0.00 0.00 0.00 0.00 0.00 0.00 0.02 0.01 0.00 0.00 0.00 0.00 0.00 0.00 0.00 0.00 0.00 0.00
0.00 0.00 0.00 0.00 0.00 0.00 0.00 0.00 0.00 0.00 0.00 0.00 0.00 0.00 0.00 0.00 0.00 0.00 0.00 0.00 0.00 0.00 0.00 0.00 0.00 0.00 0.00 0.00 0.00 0.00 0.01 0.02 0.01 0.01 0.00 0.00 0.02 0.01 0.00 0.00 0.00 0.00 0.00 0.00 0.00
0.00 0.00 0.00 0.00 0.00 0.00 0.00 0.00 0.00 0.00 0.00 0.00 0.00 0.00 0.00 0.00 0.00 0.00 0.00 0.00 0.00 0.00 0.00 0.00 0.00 0.00 0.00 0.00 0.00 0.00 0.01 0.01 0.01 0.01 0.01 0.00 0.01 0.00 0.00 0.00 0.00 0.00 0.00 0.00 0.00
0.00 0.00 0.00 0.00 0.00 0.00 0.00 0.00 0.00 0.00 0.00 0.00 0.00 0.00 0.00 0.00 0.00 0.00 0.00 0.00 0.00 0.00 0.00 0.00 0.00 0.00 0.00 0.00 0.00 0.00 0.00 0.02 0.02 0.01 0.02 0.00 0.01 0.02 0.00 0.00 0.00 0.00 0.00 0.00 0.00
0.00 0.00 0.00 0.00 0.00 0.00 0.00 0.00 0.00 0.00 0.00 0.00 0.00 0.00 0.00 0.00 0.00 0.00 0.00 0.00 0.00 0.00 0.00 0.00 0.00 0.00 0.00 0.00 0.00 0.00 0.00 0.02 0.05 0.02 0.01 0.02 0.01 0.03 0.01 0.00 0.01 0.00 0.00 0.00 0.02
0.00 0.00 0.00 0.00 0.00 0.00 0.00 0.00 0.00 0.00 0.00 0.00 0.00 0.00 0.00 0.00 0.00 0.00 0.00 0.00 0.00 0.00 0.00 0.00 0.00 0.00 0.00 0.00 0.00 0.00 0.00 0.03 0.05 0.03 0.03 0.02 0.01 0.01 0.00 0.00 0.00 0.00 0.01 0.00 0.02
0.00 0.00 0.00 0.00 0.00 0.00 0.00 0.00 0.00 0.00 0.00 0.00 0.00 0.00 0.00 0.00 0.00 0.00 0.00 0.00 0.00 0.00 0.00 0.00 0.00 0.01 0.00 0.01 0.00 0.00 0.00 0.00 0.04 0.07 0.05 0.01 0.00 0.00 0.00 0.00 0.00 0.00 0.02 0.01 0.02
0.00 0.00 0.00 0.00 0.00 0.00 0.00 0.00 0.00 0.00 0.00 0.00 0.00 0.00 0.00 0.00 0.00 0.00 0.00 0.00 0.00 0.00 0.00 0.00 0.01 0.02 0.02 0.00 0.00 0.00 0.00 0.01 0.04 0.04 0.03 0.01 0.01 0.00 0.00 0.00 0.00 0.01 0.01 0.01 0.04
0.00 0.00 0.00 0.00 0.00 0.00 0.00 0.00 0.00 0.00 0.00 0.00 0.00 0.00 0.00 0.00 0.00 0.00 0.00 0.00 0.00 0.00 0.00 0.00 0.01 0.00 0.00 0.00 0.00 0.00 0.00 0.02 0.02 0.04 0.02 0.01 0.02 0.01 0.01 0.01 0.00 0.02 0.03 0.02 0.02
0.00 0.00 0.00 0.00 0.00 0.00 0.00 0.00 0.00 0.00 0.00 0.00 0.00 0.00 0.00 0.00 0.00 0.00 0.00 0.00 0.00 0.00 0.00 0.00 0.00 0.00 0.00 0.00 0.00 0.00 0.00 0.00 0.00 0.01 0.01 0.01 0.01 0.00 0.01 0.01 0.00 0.00 0.01 0.03 0.04
0.00 0.00 0.00 0.00 0.00 0.00 0.00 0.00 0.00 0.00 0.00 0.00 0.00 0.00 0.00 0.00 0.00 0.00 0.00 0.00 0.00 0.00 0.00 0.00 0.01 0.01 0.00 0.00 0.00 0.04 0.01 0.00 0.00 0.00 0.01 0.01 0.00 0.01 0.01 0.01 0.00 0.00 0.00 0.03 0.05
MSLP
1017.67 1017.42 1017.19 1017.01 1016.78 1016.51 1016.31 1016.10 1015.80 1015.67 1015.46 1015.11 1014.71 1014.26 1013.67 1013.15 1012.33 1011.59 1010.81 1011.85 1011.40 1011.00 1010.97 1008.88 1007.70 1007.54 1006.85 1005.91 1005.59 1004.88 1003.12 1000.80 999.85 999.44 999.49 1000.25 1000.76 1001.71 1001.87 1002.26 1002.00 1001.77 1001.17 1000.82 1000.86
1017.78 1017.48 1017.22 1017.01 1016.78 1016.54 1016.33 1016.14 1015.85 1015.52 1015.39 1015.09 1014.67 1014.23 1013.72 1013.30 1011.54 1010.63 1011.94 1011.82 1011.63 1010.94 1009.07 1008.26 1007.41 1006.97 1005.72 1005.53 1005.24 1004.53 1002.38 1001.09 1001.37 1001.72 1001.74 1001.79 1001.84 1002.00 1002.23 1002.05 1001.74 1001.64 1001.48 1001.33 1001.32
1017.88 1017.59 1017.31 1017.06 1016.81 1016.55 1016.34 1016.19 1015.95 1015.62 1015.27 1015.04 1014.75 1014.37 1013.87 1013.30 1010.82 1010.45 1011.62 1011.72 1011.58 1011.05 1009.21 1008.39 1007.38 1006.73 1005.45 1005.49 1004.93 1003.97 1003.02 1002.52 1002.85 1003.03 1003.15 1002.85 1002.66 1002.61 1002.15 1001.73 1001.70 1001.53 1001.37 1001.13 1000.87
1017.91 1017.65 1017.40 1017.09 1016.81 1016.55 1016.31 1016.09 1015.87 1015.62 1015.35 1015.03 1014.69 1014.42 1013.95 1012.67 1009.96 1010.23 1011.37 1011.55 1011.50 1010.50 1008.50 1007.70 1006.73 1006.05 1005.40 1004.88 1005.21 1004.78 1003.80 1003.60 1003.62 1003.62 1003.53 1003.15 1002.84 1002.44 1002.18 1001.81 1001.85 1001.91 1001.75 1001.48 1001.33
1017.91 1017.62 1017.37 1017.07 1016.79 1016.53 1016.23 1015.97 1015.77 1015.51 1015.25 1014.97 1014.62 1014.34 1013.49 1010.86 1009.53 1010.59 1011.33 1011.35 1010.73 1009.43 1008.31 1007.83 1007.00 1006.72 1005.53 1005.34 1005.10 1004.39 1003.84 1003.91 1003.79 1003.51 1003.20 1002.97 1002.59 1002.22 1001.57 1001.59 1001.55 1001.60 1001.57 1001.46 1001.31
1017.93 1017.61 1017.29 1017.01 1016.67 1016.32 1016.09 1015.83 1015.59 1015.37 1015.12 1014.76 1014.40 1014.20 1012.30 1009.35 1009.46 1009.60 1009.96 1009.79 1009.39 1008.71 1008.28 1007.89 1007.68 1007.57 1006.83 1005.75 1005.15 1004.28 1004.32 1003.87 1003.33 1002.87 1002.52 1002.20 1001.86 1001.73 1000.88 1000.94 1000.79 1000.82 1001.11 1001.16 1001.05
1017.93 1017.57 1017.19 1016.83 1016.55 1016.19 1015.84 1015.55 1015.32 1015.14 1014.91 1014.57 1014.17 1013.25 1010.70 1009.62 1009.30 1009.13 1009.16 1009.03 1008.68 1008.67 1008.33 1007.90 1008.03 1007.88 1006.67 1005.75 1004.85 1004.83 1004.17 1002.93 1001.76 1001.85 1002.03 1002.09 1001.46 1000.48 999.74 999.69 999.77 1000.06 1000.16 1000.44 1000.57
1017.83 1017.43 1017.01 1016.71 1016.28 1015.96 1015.62 1015.37 1014.97 1014.76 1014.60 1014.20 1013.98 1012.67 1009.29 1009.07 1009.06 1008.53 1008.51 1008.31 1008.00 1008.45 1008.42 1008.41 1008.18 1007.67 1006.92 1005.89 1005.03 1003.93 1002.76 1001.41 1000.00 1000.55 1000.74 1001.74 999.90 999.55 999.25 999.09 999.05 999.22 999.59 999.58 999.78
1017.78 1017.27 1016.85 1016.44 1016.16 1015.69 1015.29 1014.95 1014.68 1014.39 1014.19 1013.79 1013.18 1011.21 1008.32 1009.18 1008.69 1008.72 1008.45 1008.35 1008.07 1007.66 1007.73 1008.27 1008.06 1007.04 1006.15 1005.19 1003.13 1000.89 1000.95 1000.33 1000.04 1000.18 1000.04 1000.23 999.04 998.91 998.93 998.41 998.23 998.70 998.81 998.97 999.07
1017.91 1017.26 1016.74 1016.22 1015.77 1015.54 1015.14 1014.71 1014.18 1014.08 1013.42 1012.24 1011.23 1010.35 1008.67 1008.91 1009.08 1008.83 1008.22 1008.18 1007.79 1007.47 1006.87 1006.77 1006.35 1005.58 1004.50 1003.26 1002.36 1002.21 1001.73 1001.21 1000.42 1000.03 999.69 999.10 997.97 997.51 997.47 997.33 997.00 997.07 997.29 997.50 997.87
1018.01 1017.31 1016.63 1016.08 1015.58 1015.19 1014.83 1014.08 1013.58 1012.68 1010.97 1009.99 1009.60 1009.37 1008.85 1009.08 1008.91 1008.40 1008.21 1007.62 1007.15 1006.79 1005.87 1005.41 1005.59 1003.68 1003.99 1004.30 1004.11 1003.61 1002.53 1001.17 1000.34 999.65 999.45 998.49 997.72 997.07 996.45 996.35 996.05 996.08 996.35 996.64 996.81
1018.10 1017.39 1016.61 1015.93 1015.52 1015.15 1014.62 1011.92 1011.82 1011.47 1010.06 1009.35 1009.25 1008.97 1008.77 1008.91 1008.17 1008.21 1008.33 1007.45 1006.95 1006.02 1005.39 1004.85 1004.03 1003.77 1004.89 1004.65 1004.07 1003.25 1002.06 1000.77 1000.07 999.90 999.83 998.41 996.82 996.04 995.77 995.74 995.99 996.09 996.32 996.41 996.69
1018.07 1017.35 1016.56 1015.95 1015.46 1015.01 1012.56 1011.82 1011.43 1011.14 1009.99 1008.27 1008.57 1008.55 1008.33 1008.24 1008.03 1008.24 1008.36 1007.93 1006.76 1005.99 1005.07 1004.80 1003.89 1004.72 1004.80 1004.28 1003.56 1002.80 1002.01 1001.23 1001.09 1000.35 999.07 996.65 995.95 995.77 996.17 996.05 995.76 996.19 996.68 996.83 996.85
1017.99 1017.19 1016.47 1015.92 1015.83 1012.26 1011.29 1011.81 1011.48 1011.55 1009.43 1008.19 1008.08 1007.98 1007.94 1007.87 1007.94 1008.43 1008.43 1008.47 1007.05 1005.99 1005.58 1004.69 1004.13 1004.59 1004.48 1004.24 1003.74 1002.94 1002.37 1002.33 1001.35 1000.05 998.07 997.57 995.88 996.26 995.77 995.64 995.57 996.24 996.20 996.25 996.47
1017.96 1017.03 1016.30 1016.03 1014.02 1011.59 1011.88 1011.53 1011.24 1011.63 1008.99 1008.74 1007.93 1008.30 1007.47 1008.07 1008.09 1007.77 1008.45 1008.17 1007.17 1006.53 1006.39 1004.01 1004.28 1004.55 1004.62 1004.19 1004.53 1003.60 1003.28 1002.53 1001.03 999.76 998.72 998.37 997.18 996.19 996.59 997.19 997.71 997.77 997.63 997.28 997.13
1017.76 1016.93 1016.17 1014.50 1012.91 1011.47 1011.55 1011.81 1011.52 1010.18 1008.01 1008.30 1008.29 1007.61 1007.19 1007.43 1007.90 1007.87 1007.83 1007.51 1007.12 1006.57 1005.60 1005.11 1004.21 1005.16 1004.98 1004.93 1004.00 1003.71 1003.04 1002.19 1000.71 999.49 999.57 998.91 998.04 997.81 999.05 999.85 999.85 999.79 999.37 998.06 996.67
1017.27 1016.38 1016.30 1013.79 1011.85 1011.62 1011.62 1011.11 1009.80 1008.30 1008.23 1008.36 1008.39 1007.91 1007.70 1007.57 1007.43 1007.59 1007.28 1006.64 1007.24 1006.58 1005.18 1004.37 1003.50 1004.84 1005.61 1004.33 1003.23 1003.50 1003.27 1003.27 1001.78 1000.71 999.44 999.21 999.06 999.59 1000.36 1000.94 1001.21 1000.77 999.64 998.17 996.87
1016.93 1015.40 1013.92 1012.64 1011.99 1012.03 1011.53 1010.36 1009.02 1008.23 1008.55 1009.22 1008.86 1008.14 1007.70 1007.98 1007.83 1007.49 1007.07 1006.90 1007.53 1007.92 1006.53 1005.45 1004.23 1004.85 1005.06 1004.89 1004.47 1004.06 1004.86 1006.35 1005.84 1004.19 1002.43 1000.88 999.75 999.17 1000.63 1001.42 1001.74 1001.06 1000.18 998.91 996.64
1016.71 1013.07 1011.93 1011.81 1012.30 1012.14 1011.15 1009.28 1008.20 1009.41 1010.24 1010.00 1008.99 1008.07 1007.44 1007.69 1008.25 1007.47 1007.04 1007.95 1008.61 1008.89 1008.72 1007.25 1005.29 1005.71 1005.16 1004.86 1004.95 1004.34 1005.29 1006.23 1007.33 1006.57 1004.86 1000.58 999.75 999.17 999.99 1001.13 1001.54 1000.59 999.95 998.25 996.34
1016.70 1013.04 1011.21 1011.93 1012.14 1011.82 1010.54 1009.24 1009.58 1010.76 1011.00 1010.59 1009.67 1009.33 1008.79 1008.50 1008.47 1008.05 1007.56 1008.85 1009.50 1009.69 1009.57 1008.77 1007.88 1006.10 1005.07 1004.60 1004.68 1005.03 1006.07 1006.54 1007.56 1007.61 1005.41 1002.04 1001.00 1001.20 1001.78 1002.14 1002.17 1001.25 1000.01 998.81 997.18
1016.32 1012.31 1011.65 1011.60 1011.49 1010.68 1009.44 1009.64 1010.51 1011.23 1011.84 1011.37 1010.63 1010.24 1009.56 1009.36 1009.35 1008.67 1008.35 1008.94 1009.96 1010.01 1009.93 1009.14 1008.84 1007.05 1005.44 1003.68 1003.65 1005.55 1005.65 1006.23 1007.89 1008.17 1007.55 1004.92 1002.60 1002.57 1002.98 1003.62 1003.55 1002.89 1000.89 1000.55 998.75
1015.03 1011.57 1011.69 1011.36 1010.55 1010.02 1009.74 1011.25 1012.55 1011.54 1011.86 1011.84 1011.53 1010.75 1010.46 1010.41 1009.77 1009.33 1009.06 1009.32 1010.17 1010.41 1010.13 1009.74 1009.43 1007.64 1005.53 1003.59 1004.11 1004.54 1005.66 1006.42 1007.65 1007.75 1007.70 1006.31 1003.71 1002.74 1004.01 1004.67 1004.77 1003.87 1002.13 1001.05 999.28
1015.46 1012.73 1011.95 1011.44 1009.97 1010.16 1011.48 1011.70 1012.25 1012.21 1012.15 1012.02 1011.86 1011.47 1011.27 1010.82 1010.32 1009.58 1009.50 1009.80 1010.17 1010.55 1010.68 1010.67 1009.33 1008.29 1004.96 1004.46 1005.32 1005.16 1005.62 1006.62 1006.96 1007.15 1006.99 1006.85 1004.50 1004.10 1004.31 1005.02 1005.04 1004.61 1003.19 1001.46 999.62
1016.02 1012.74 1011.84 1011.79 1012.28 1012.14 1012.07 1011.94 1012.16 1012.62 1012.63 1012.70 1012.36 1012.07 1011.44 1010.85 1010.34 1009.91 1009.47 1009.64 1009.98 1010.12 1011.32 1011.61 1010.37 1009.73 1008.45 1006.94 1006.34 1005.72 1005.58 1005.93 1006.95 1006.77 1006.98 1006.41 1005.45 1004.29 1004.92 1005.47 1005.10 1005.01 1004.13 1002.76 1000.75
1016.14 1014.78 1015.00 1012.45 1012.33 1013.03 1013.08 1012.93 1012.55 1012.61 1012.69 1012.63 1012.03 1012.11 1012.08 1011.42 1010.61 1009.31 1009.73 1009.59 1009.64 1010.15 1010.50 1011.31 1010.52 1009.22 1008.12 1007.11 1005.64 1005.33 1004.76 1005.13 1006.35 1006.90 1007.48 1006.86 1005.60 1005.10 1005.75 1005.88 1005.81 1005.92 1004.94 1003.40 1001.77
1017.07 1016.29 1015.12 1014.16 1014.21 1013.54 1013.53 1012.66 1013.09 1013.15 1013.31 1012.27 1012.52 1012.54 1012.51 1011.93 1011.29 1010.69 1010.54 1010.21 1010.01 1009.77 1009.79 1009.87 1009.49 1009.04 1007.80 1006.31 1004.93 1004.01 1003.93 1005.20 1005.85 1006.36 1007.20 1007.04 1005.51 1005.65 1005.49 1005.82 1006.06 1006.04 1005.49 1004.50 1002.94
1017.81 1017.37 1016.55 1014.51 1013.65 1013.69 1012.75 1013.37 1013.57 1013.77 1013.22 1013.07 1013.23 1013.06 1012.43 1011.97 1012.08 1011.45 1011.02 1010.60 1010.37 1010.19 1010.01 1009.91 1009.25 1008.81 1007.19 1005.35 1004.27 1003.74 1004.29 1005.00 1005.50 1005.71 1006.63 1007.09 1006.24 1005.45 1005.02 1005.67 1006.18 1006.40 1006.08 1005.42 1004.27
Thickness
5714 5714 5715 5715 5715 5716 5716 5717 5718 5718 5718 5720 5721 5723 5726 5728 5733 5740 5737 5733 5735 5738 5738 5753 5759 5757 5762 5760 5764 5768 5752 5761 5773 5775 5776 5785 5773 5774 5779 5767 5773 5781 5790 5803 5804
5713 5714 5714 5714 5715 5715 5715 5715 5716 5717 5717 5718 5720 5721 5724 5725 5739 5739 5730 5729 5729 5734 5746 5744 5743 5750 5754 5753 5755 5749 5756 5762 5765 5760 5753 5758 5757 5757 5753 5753 5759 5765 5783 5793 5794
5712 5713 5713 5713 5714 5714 5715 5714 5714 5715 5716 5716 5717 5718 5720 5722 5737 5733 5729 5726 5725 5728 5741 5743 5746 5744 5745 5746 5746 5750 5741 5752 5744 5744 5741 5736 5735 5742 5737 5736 5747 5746 5762 5774 5781
5711 5711 5712 5712 5713 5713 5713 5714 5713 5714 5714 5714 5715 5715 5716 5724 5721 5737 5727 5723 5721 5727 5738 5737 5740 5735 5734 5733 5736 5722 5738 5735 5730 5730 5724 5719 5728 5723 5727 5732 5740 5743 5752 5758 5761
5710 5710 5711 5711 5712 5712 5713 5713 5713 5713 5713 5713 5714 5713 5720 5729 5728 5730 5723 5720 5721 5729 5728 5724 5724 5722 5723 5725 5726 5722 5727 5725 5723 5720 5719 5719 5710 5712 5719 5724 5731 5734 5737 5740 5745
5709 5710 5710 5710 5711 5712 5712 5713 5713 5713 5712 5713 5713 5712 5723 5723 5737 5733 5728 5726 5725 5725 5722 5722 5715 5716 5710 5715 5713 5723 5714 5713 5715 5715 5716 5710 5711 5708 5718 5722 5720 5721 5719 5724 5731
5708 5709 5710 5710 5710 5711 5712 5713 5713 5712 5711 5711 5712 5715 5724 5720 5736 5734 5731 5726 5728 5722 5713 5721 5716 5705 5712 5705 5720 5707 5696 5708 5717 5715 5707 5710 5699 5705 5729 5730 5722 5717 5717 5717 5720
5706 5708 5709 5710 5711 5711 5712 5712 5713 5712 5710 5711 5709 5715 5722 5736 5733 5734 5732 5727 5731 5724 5716 5715 5712 5704 5700 5710 5703 5698 5704 5695 5723 5719 5718 5700 5693 5717 5728 5726 5720 5719 5715 5715 5717
5704 5707 5708 5710 5710 5711 5713 5714 5713 5712 5710 5710 5713 5719 5720 5734 5725 5728 5729 5716 5719 5722 5718 5710 5703 5697 5699 5690 5701 5722 5694 5702 5705 5715 5714 5704 5699 5718 5724 5724 5719 5712 5712 5710 5711
5701 5704 5707 5709 5711 5710 5712 5713 5714 5712 5714 5717 5721 5710 5726 5710 5717 5720 5728 5720 5710 5709 5707 5703 5701 5694 5700 5701 5685 5683 5682 5686 5686 5704 5707 5703 5709 5723 5727 5723 5721 5720 5716 5715 5710
5699 5702 5705 5708 5710 5710 5710 5716 5718 5715 5724 5717 5715 5710 5715 5719 5723 5716 5719 5714 5711 5703 5692 5702 5681 5693 5690 5686 5681 5675 5674 5678 5692 5706 5696 5700 5704 5713 5725 5720 5718 5719 5713 5710 5709
5695 5699 5703 5706 5707 5707 5709 5721 5716 5715 5706 5724 5718 5716 5719 5716 5704 5706 5712 5698 5694 5687 5697 5692 5684 5697 5682 5679 5675 5675 5675 5681 5694 5697 5689 5694 5704 5718 5721 5714 5710 5707 5703 5702 5701
5692 5696 5700 5703 5704 5706 5720 5716 5720 5717 5702 5718 5717 5709 5710 5712 5698 5694 5697 5689 5686 5681 5687 5674 5689 5682 5673 5671 5671 5675 5671 5673 5668 5682 5698 5712 5704 5703 5706 5705 5704 5699 5693 5691 5688
5688 5693 5697 5700 5699 5723 5718 5716 5715 5709 5691 5701 5704 5708 5708 5703 5686 5696 5691 5676 5677 5673 5674 5676 5688 5673 5667 5661 5669 5658 5677 5665 5666 5673 5675 5703 5672 5690 5699 5698 5698 5690 5689 5686 5683
5685 5689 5694 5694 5706 5714 5710 5713 5711 5697 5672 5693 5697 5709 5706 5686 5683 5681 5684 5672 5661 5662 5661 5674 5670 5662 5654 5659 5656 5654 5665 5662 5674 5678 5681 5677 5670 5688 5690 5668 5665 5668 5666 5668 5666
5682 5685 5689 5700 5708 5714 5710 5705 5698 5677 5670 5684 5689 5686 5685 5681 5672 5674 5670 5677 5672 5660 5668 5664 5683 5659 5655 5654 5661 5664 5658 5666 5678 5682 5649 5666 5667 5662 5646 5639 5643 5646 5643 5651 5660
5682 5686 5685 5696 5700 5707 5703 5695 5677 5673 5695 5676 5670 5678 5673 5666 5666 5663 5657 5658 5643 5636 5651 5665 5671 5661 5649 5650 5666 5656 5645 5617 5639 5644 5658 5675 5655 5638 5641 5637 5629 5625 5634 5644 5648
5678 5689 5698 5700 5702 5698 5693 5680 5662 5683 5675 5674 5668 5671 5661 5661 5657 5657 5656 5648 5648 5636 5639 5637 5641 5648 5651 5642 5637 5644 5628 5584 5572 5604 5624 5654 5638 5652 5643 5634 5624 5624 5621 5626 5639
5674 5698 5701 5700 5692 5689 5678 5669 5678 5664 5659 5652 5661 5658 5663 5660 5648 5654 5654 5638 5634 5630 5612 5622 5638 5645 5646 5647 5642 5636 5618 5624 5578 5595 5593 5657 5661 5666 5652 5634 5623 5622 5617 5625 5632
5668 5689 5696 5691 5685 5678 5669 5662 5664 5657 5650 5649 5640 5648 5638 5644 5640 5643 5644 5635 5621 5624 5626 5619 5601 5636 5643 5648 5643 5632 5628 5605 5595 5571 5588 5642 5639 5620 5618 5610 5608 5606 5609 5614 5618
5664 5681 5687 5686 5683 5673 5663 5660 5654 5652 5641 5635 5635 5633 5640 5635 5633 5635 5636 5635 5621 5617 5619 5619 5605 5618 5636 5642 5638 5614 5616 5617 5594 5582 5569 5582 5620 5624 5609 5597 5582 5584 5600 5594 5600
5665 5672 5681 5681 5663 5667 5661 5646 5627 5643 5641 5633 5633 5635 5630 5627 5626 5627 5625 5626 5623 5616 5605 5614 5603 5599 5621 5654 5648 5638 5615 5612 5577 5585 5577 5578 5594 5632 5607 5587 5574 5575 5586 5590 5598
5652 5662 5673 5669 5656 5654 5643 5639 5635 5631 5630 5628 5624 5629 5629 5622 5617 5628 5627 5629 5623 5611 5602 5602 5603 5590 5625 5636 5626 5620 5619 5608 5607 5601 5591 5568 5594 5620 5605 5585 5579 5574 5579 5587 5599
5643 5650 5658 5655 5645 5635 5630 5631 5627 5630 5624 5622 5620 5622 5622 5621 5628 5621 5625 5626 5624 5618 5594 5593 5594 5582 5575 5596 5607 5604 5613 5613 5596 5590 5583 5589 5589 5607 5593 5578 5578 5572 5574 5581 5593
5636 5631 5623 5638 5638 5627 5624 5622 5622 5618 5624 5623 5621 5617 5611 5607 5616 5629 5624 5623 5623 5609 5607 5591 5580 5596 5602 5607 5619 5614 5620 5618 5597 5594 5570 5580 5591 5596 5582 5573 5571 5565 5571 5581 5591
5616 5615 5625 5626 5619 5621 5612 5626 5615 5615 5611 5618 5609 5611 5608 5605 5612 5608 5611 5612 5606 5613 5609 5608 5594 5595 5597 5613 5624 5624 5630 5610 5604 5599 5578 5581 5596 5595 5591 5584 5573 5568 5569 5574 5584
5607 5607 5606 5612 5623 5617 5627 5616 5610 5609 5615 5614 5606 5602 5605 5610 5608 5612 5613 5612 5609 5602 5599 5597 5597 5589 5594 5624 5625 5611 5614 5607 5602 5603 5587 5567 5583 5595 5596 5581 5572 5567 5566 5569 5575